SCP
-0 -0 -0 0 0 0 0 0 0 0 0 0 0 0 0 0 0 0 0 0 0 1 1 0 0 0 0 0 1 1 1 1 1 1 1 1 1 1 1 1 1 1 1 0 0 0 0 0 0
-0 -0 -0 0 0 0 0 0 0 0 0 0 0 0 0 0 0 0 0 0 0 0 0 0 0 0 0 0 1 1 1 1 1 1 1 1 1 1 1 1 1 1 1 0 0 0 0 0 0
-0 -0 -0 0 0 0 0 0 0 0 0 0 0 0 0 0 0 0 0 0 0 0 0 0 0 0 0 0 0 0 1 1 1 1 1 1 1 1 1 1 0 0 0 0 0 0 0 0 0
0 0 -0 0 0 0 0 0 0 0 0 0 0 0 0 0 0 0 0 0 0 0 0 1 1 1 0 0 0 0 0 0 0 1 1 1 1 1 1 0 0 0 0 0 0 0 0 0 0
0 0 0 0 0 0 0 0 0 0 0 0 0 0 0 0 0 1 1 1 0 0 1 1 1 1 1 1 0 0 0 0 0 0 1 1 1 1 0 0 0 0 0 0 0 0 0 0 0
0 0 0 0 0 0 0 0 0 0 0 0 0 0 0 0 1 1 1 1 1 0 1 1 1 1 1 1 1 1 0 0 0 0 0 0 0 0 0 0 0 0 0 0 0 0 0 0 0
0 0 0 0 0 0 0 0 0 0 0 0 0 0 0 1 1 1 1 1 0 0 1 1 1 1 1 1 1 1 1 0 0 0 0 0 0 0 0 0 0 0 0 0 0 0 0 0 0
0 0 0 0 0 0 0 0 0 0 0 0 0 0 0 1 1 1 1 1 0 0 0 1 1 1 1 1 1 1 1 0 0 0 0 0 0 0 0 0 0 0 0 0 0 0 0 0 0
0 0 0 0 0 0 0 0 0 0 0 0 0 0 1 1 1 1 1 1 0 1 1 0 0 0 1 1 1 1 0 0 0 0 0 0 0 0 0 1 1 1 0 0 0 0 0 0 0
0 0 0 0 0 0 0 0 0 0 0 0 0 1 1 1 1 1 1 1 1 1 1 1 1 0 0 0 0 0 0 0 0 0 0 0 0 0 1 1 1 1 0 0 0 0 0 0 0
0 0 0 0 0 0 0 0 0 0 0 0 0 1 1 1 1 1 1 1 0 1 1 1 1 1 0 0 0 0 0 0 0 0 1 1 1 1 1 1 1 1 0 0 0 0 0 0 0
0 0 0 0 0 0 0 0 0 0 0 0 0 1 1 1 1 1 1 0 0 1 1 1 1 1 1 0 0 0 0 0 0 1 1 1 1 1 1 1 1 1 0 0 0 0 0 0 0
0 0 0 0 0 0 0 0 0 0 0 0 0 1 1 1 1 1 1 1 1 1 1 1 1 1 1 1 1 0 0 1 1 1 1 1 1 1 1 1 1 1 1 1 0 0 0 0 0
0 0 0 0 0 0 0 0 0 0 0 0 0 1 1 1 1 1 1 1 1 1 1 1 1 1 1 1 1 1 1 1 1 1 2 2 1 1 1 1 1 1 1 1 1 0 0 0 0
0 0 0 0 0 0 0 0 0 0 0 0 0 0 1 1 1 1 1 1 1 1 2 2 1 1 2 2 1 1 1 2 2 2 2 2 2 2 2 2 2 2 2 1 1 1 1 1 1
0 0 0 0 0 0 0 0 0 0 0 0 0 0 0 1 1 1 1 2 2 2 3 3 2 2 2 2 2 2 3 3 3 3 2 2 2 2 3 3 3 2 2 2 1 1 1 1 1
0 0 0 0 0 0 0 0 0 0 0 0 0 0 0 1 1 1 1 2 3 4 4 5 4 4 3 3 4 4 4 5 4 4 3 3 3 3 3 3 3 3 2 2 2 1 1 1 1
0 0 0 0 0 0 0 0 0 0 0 0 0 0 1 1 1 1 1 2 3 5 6 6 6 6 5 5 6 6 6 6 5 5 5 4 4 3 3 3 3 3 2 2 2 1 1 1 1
0 0 0 0 0 0 0 0 0 0 0 0 1 1 1 1 1 2 2 3 4 5 6 7 7 7 7 8 8 8 7 6 6 6 5 4 3 3 3 3 3 2 2 2 1 1 1 0 0
0 0 0 0 0 0 0 0 0 0 1 1 1 2 2 2 2 2 3 4 4 5 6 7 7 8 9 9 10 8 7 6 5 5 3 2 2 3 3 2 2 2 2 2 1 0 0 0 0
0 0 0 0 0 0 0 0 0 0 1 2 3 3 3 3 3 3 4 5 5 5 6 7 8 10 10 10 9 8 6 4 3 2 1 1 1 1 1 1 1 1 1 1 0 0 0 0 0
0 0 0 0 0 0 0 0 0 0 2 3 4 5 5 5 5 5 5 6 6 6 6 8 9 10 10 10 8 7 6 4 2 1 0 0 0 0 0 0 0 0 0 0 0 0 0 0 0
0 0 0 0 0 0 0 0 0 1 2 4 4 5 5 5 5 6 6 7 8 8 8 9 9 9 9 8 7 6 4 3 1 1 0 0 0 0 0 0 0 0 0 0 0 0 0 0 0
0 0 0 0 0 0 0 0 0 1 3 3 4 4 5 4 4 5 5 6 8 9 9 9 9 8 7 7 6 4 3 2 1 1 0 0 0 0 0 0 0 0 0 0 0 0 0 0 0
0 0 0 0 0 0 0 0 1 2 2 2 3 3 3 3 3 4 5 6 7 8 8 8 7 7 5 4 3 2 2 1 1 1 0 0 0 0 0 0 0 0 0 0 0 0 0 0 0
0 0 0 0 0 0 0 1 2 2 2 2 2 2 2 2 3 3 4 6 7 7 7 5 5 4 3 2 2 1 1 1 1 0 0 0 0 0 0 0 0 0 0 0 0 0 0 0 0
0 0 0 0 0 0 0 1 1 2 2 2 1 1 1 2 2 2 2 3 4 4 4 3 2 1 1 1 1 1 1 1 0 0 0 0 0 0 0 0 0 0 0 0 0 0 0 0 0
0 0 0 0 0 0 0 1 1 1 2 2 1 1 1 1 1 1 1 1 1 1 1 1 1 1 1 1 1 0 0 0 0 0 0 0 0 0 0 0 0 0 0 0 0 0 0 0 0
0 0 0 0 0 0 0 1 1 2 2 2 1 1 1 1 0 0 0 0 0 0 0 0 0 0 0 0 0 0 0 0 0 0 0 0 0 0 0 0 0 0 0 0 0 0 0 0 0
0 0 0 0 0 0 0 1 1 2 2 2 1 1 1 1 0 0 0 0 0 0 0 0 0 0 0 0 0 0 0 0 0 0 0 0 0 0 0 0 0 0 0 0 0 0 0 0 0
Wind_Speed
7 7 6 6 9 7 6 3 3 3 2 3 1 2 4 5 6 5 6 13 15 16 17 18 12 12 12 11 11 13 14 15 15 14 14 13 13 12 11 11 11 11 11 11 11 10 10 9 9
6 5 6 7 9 8 3 2 4 4 4 1 2 1 1 2 5 6 9 14 16 16 16 17 15 13 13 13 13 13 14 15 14 14 13 13 12 11 11 11 10 10 10 10 10 9 9 8 7
7 7 7 7 9 10 6 4 6 4 1 4 3 1 2 4 4 7 11 16 16 15 15 17 16 13 13 13 13 14 14 14 14 13 12 12 11 10 10 10 9 9 8 8 8 8 7 7 6
6 7 7 10 15 12 11 10 7 5 3 5 4 3 4 5 4 10 15 17 17 16 16 18 16 15 13 13 13 14 14 13 13 13 12 11 10 9 9 9 8 7 7 6 7 7 6 6 5
7 7 11 15 18 15 11 11 11 10 6 5 5 3 6 6 8 14 16 16 16 15 15 19 15 14 13 13 13 12 12 12 11 11 11 10 9 8 8 7 7 6 6 5 5 6 5 5 3
7 8 14 17 18 14 12 12 12 12 10 8 7 4 7 10 11 14 15 14 15 14 15 18 16 15 15 14 13 11 11 10 10 10 10 9 8 8 7 7 6 6 5 5 5 5 5 4 3
11 11 17 19 16 13 11 10 12 12 12 10 7 5 8 11 12 13 14 14 14 14 14 16 18 17 15 13 13 12 11 10 10 9 9 9 8 8 7 7 6 6 5 5 5 5 5 4 3
9 9 17 16 14 13 7 6 8 11 12 9 8 7 7 14 14 13 13 13 13 14 13 14 16 16 16 16 15 13 12 11 11 11 11 10 9 8 7 8 7 5 5 5 5 5 4 4 3
8 11 14 14 12 10 6 6 5 6 11 10 11 6 5 19 18 15 14 13 13 13 13 13 15 15 15 15 15 14 13 11 11 12 11 10 11 11 10 8 8 6 5 4 4 4 4 4 6
10 13 15 8 7 5 3 6 5 7 13 14 13 8 10 19 19 18 17 17 17 16 15 14 14 14 14 11 12 11 11 12 11 10 12 10 7 5 6 11 7 6 5 5 5 3 6 9 6
11 13 10 7 8 7 8 7 5 9 12 15 16 15 15 19 19 18 17 16 17 17 15 15 14 13 13 9 9 8 7 8 11 10 10 7 6 6 5 6 8 8 8 8 8 8 5 3 1
11 12 10 9 7 9 10 9 8 11 11 7 12 15 18 20 20 19 18 17 16 16 17 15 15 13 12 10 8 8 7 7 8 9 10 7 5 5 5 4 5 5 5 3 4 3 3 2 3
16 11 11 13 13 13 14 14 12 11 11 7 9 15 20 21 20 19 17 16 16 16 16 16 15 14 11 9 7 8 8 7 8 7 8 7 6 6 5 4 3 4 3 5 4 3 3 3 4
12 14 13 13 14 14 14 14 10 8 7 10 12 16 19 20 20 19 18 17 17 16 16 15 15 14 13 10 8 7 8 7 7 7 8 8 6 5 5 5 4 4 3 2 3 3 3 2 2
9 11 13 15 14 11 10 13 12 4 5 9 13 14 17 18 19 20 20 19 17 16 15 15 15 15 14 13 11 8 7 7 6 6 6 7 6 5 4 4 4 3 3 3 3 4 3 3 3
12 14 14 13 11 10 11 12 8 2 4 7 9 11 13 16 19 19 19 17 16 15 16 15 13 15 15 12 11 8 7 6 5 4 4 6 6 5 4 3 3 3 3 3 3 2 3 2 1
13 14 14 11 9 8 12 10 7 1 3 5 6 8 11 13 17 18 18 17 16 15 15 16 15 15 15 13 10 8 5 3 3 2 2 2 3 4 3 3 3 4 3 3 3 3 2 3 2
12 13 11 11 9 8 11 10 5 2 4 6 6 7 9 12 15 15 16 16 15 14 14 14 15 14 13 11 9 6 5 3 2 3 3 3 2 3 4 4 5 4 4 4 4 5 4 2 1
5 9 10 8 3 7 11 10 8 5 5 5 5 6 7 9 10 11 13 15 15 14 15 15 15 14 12 9 9 7 5 5 5 5 5 4 2 3 3 4 5 4 4 5 5 4 3 2 0
11 10 10 8 4 7 9 11 10 8 5 3 4 4 6 8 7 7 10 13 15 15 15 14 14 14 13 9 7 5 7 6 5 4 5 4 3 3 3 5 5 4 4 5 4 3 2 2 0
15 14 12 9 6 9 9 14 13 10 5 2 2 5 7 8 9 7 7 10 12 14 14 12 13 12 12 11 9 9 6 5 4 4 4 4 4 3 4 4 5 4 4 4 3 3 2 2 2
14 13 11 10 10 10 8 13 13 10 9 4 2 5 8 9 8 7 4 4 8 9 10 11 11 11 11 12 11 11 8 6 5 5 5 6 6 6 5 5 6 5 4 5 4 3 2 2 3
11 9 11 10 11 11 10 11 10 10 11 4 4 8 10 11 10 9 7 5 3 4 6 8 10 10 11 11 12 11 8 7 6 7 8 8 7 8 7 6 6 6 5 5 5 4 3 1 0
8 7 7 9 10 13 14 12 10 6 3 2 6 9 10 10 10 10 10 10 9 8 8 9 11 11 11 11 10 10 11 11 10 10 9 8 7 7 8 7 6 6 6 6 5 5 4 3 3
12 11 9 11 11 11 8 10 3 9 7 6 7 8 9 10 10 11 12 12 11 11 10 11 12 12 10 10 9 10 11 11 10 10 10 9 7 6 7 6 6 5 6 6 5 4 4 3 1
14 15 10 8 9 9 10 9 8 9 8 8 8 9 9 11 11 12 12 12 12 12 12 12 13 12 11 11 10 10 10 8 8 10 10 9 8 7 7 7 6 6 5 5 4 3 3 1 1
14 14 13 11 9 7 8 7 8 9 9 8 9 9 10 10 11 12 12 12 12 13 12 12 13 12 12 12 12 12 11 11 12 12 11 9 8 8 8 7 6 6 5 4 3 2 1 0 2
14 12 9 11 12 12 11 12 10 14 10 9 8 9 9 10 11 11 11 12 12 12 12 13 13 13 12 12 11 11 12 13 13 12 12 10 9 8 8 7 6 6 5 4 1 2 2 2 2
12 12 12 12 12 12 11 5 6 11 11 11 10 9 9 10 10 10 10 11 11 12 13 13 13 13 13 13 13 14 13 13 13 12 11 10 9 8 8 7 6 5 4 3 2 3 2 3 4
9 11 13 12 12 11 12 3 7 8 11 13 12 10 10 10 10 10 10 11 11 12 12 13 13 13 13 13 13 14 13 13 12 12 11 10 9 8 7 6 5 4 4 2 2 2 3 4 5
Wind_Direction
210 228 256 259 257 255 277 310 316 320 14 54 357 326 333 342 338 32 104 150 149 150 146 154 157 155 152 144 136 133 136 141 144 146 146 145 143 139 135 132 129 127 125 122 119 115 112 111 112
209 225 242 254 271 270 261 331 313 344 16 63 148 200 292 50 51 96 137 148 153 151 151 159 153 157 154 149 143 138 139 141 142 144 145 144 143 140 138 138 135 131 128 126 121 116 113 112 113
196 234 262 266 262 272 290 334 344 351 152 220 191 178 357 43 99 131 142 152 156 153 155 146 155 158 156 154 151 147 145 145 144 145 146 145 145 144 144 145 142 137 133 129 123 117 115 114 110
200 220 241 255 260 265 281 295 319 297 200 206 213 148 94 59 116 135 144 157 159 157 156 147 160 160 159 158 157 154 151 150 150 150 150 148 148 147 148 149 146 143 141 135 127 120 117 115 108
229 247 250 254 260 266 273 280 284 267 233 202 219 164 112 99 117 134 151 160 161 160 158 151 161 160 161 162 161 158 156 156 155 153 152 150 148 148 151 153 153 155 154 146 133 124 118 111 99
220 239 252 255 260 263 265 266 263 255 236 205 206 191 113 127 141 149 155 164 163 160 160 149 160 164 166 167 167 164 163 161 159 156 153 150 149 151 156 160 164 167 166 157 142 132 124 113 94
237 241 252 258 266 264 262 258 250 243 230 210 204 195 134 150 151 157 158 167 164 165 163 158 167 170 172 172 170 169 167 166 163 159 157 158 160 163 168 170 173 173 169 156 143 133 123 112 97
246 245 248 249 252 252 237 242 242 244 235 215 209 218 161 154 154 160 164 169 169 170 168 166 173 174 177 178 176 175 172 171 169 168 169 169 171 177 179 187 169 171 163 150 136 125 117 115 110
233 239 239 233 236 234 208 245 244 242 239 215 213 229 120 146 156 166 170 175 176 176 174 174 177 179 184 183 171 179 179 177 177 178 176 183 192 185 184 184 146 167 163 150 132 121 129 171 164
219 233 235 236 239 236 222 268 273 225 219 213 212 190 143 153 165 177 181 182 182 181 183 180 184 181 188 184 170 187 189 180 197 187 181 199 197 193 191 124 149 168 165 160 143 150 197 226 185
219 237 238 228 240 269 278 281 263 240 222 215 208 190 170 170 177 187 191 190 187 183 187 186 186 187 189 183 181 189 193 180 199 194 190 201 190 192 196 169 169 183 190 196 165 200 209 205 120
226 237 249 246 244 263 281 288 276 246 238 225 216 189 178 185 187 193 196 193 190 188 188 191 185 187 196 192 187 191 197 184 195 186 199 193 200 205 196 200 183 185 195 192 208 203 162 181 183
226 233 236 250 259 268 278 274 271 255 237 228 211 190 188 195 195 196 199 197 195 193 190 191 191 186 192 198 201 198 203 195 194 189 197 206 203 207 198 197 197 215 189 185 202 200 159 182 177
223 234 247 253 259 262 263 264 249 241 215 207 202 199 199 202 200 195 198 202 200 195 193 191 192 188 190 195 204 203 207 202 207 195 197 203 214 204 202 193 190 207 202 198 191 168 171 188 146
232 234 239 240 244 246 249 243 225 215 209 204 203 205 209 209 205 202 200 202 200 195 193 194 192 192 192 197 202 205 211 205 211 200 200 202 215 197 201 200 187 185 167 156 176 153 161 153 145
213 227 236 224 222 223 236 221 163 162 214 210 207 208 213 214 213 209 206 204 202 196 192 194 194 193 193 199 200 206 210 207 209 206 198 202 215 199 197 182 166 144 149 154 145 159 148 122 113
203 216 219 201 201 215 226 228 150 189 235 227 215 214 215 216 221 218 213 204 203 200 193 193 198 194 192 193 194 204 194 199 205 197 196 187 194 182 169 146 124 130 127 124 120 98 98 101 80
202 213 205 206 173 223 229 235 213 238 265 246 235 228 224 226 225 223 219 213 203 200 197 197 195 195 190 187 186 184 171 147 99 71 58 66 93 127 133 124 122 122 119 112 104 103 86 84 73
230 223 210 206 172 240 233 240 240 247 261 255 252 253 249 249 247 231 219 215 207 200 198 198 198 189 186 183 179 174 155 110 83 69 66 71 87 110 124 126 129 133 128 122 118 112 117 113 116
224 226 221 212 205 256 249 251 248 244 248 281 302 298 292 288 278 256 232 216 210 205 201 197 196 189 185 175 162 141 118 102 96 95 86 86 103 122 132 145 139 135 127 127 131 139 168 114 38
221 229 231 233 213 229 251 245 231 220 203 196 335 335 330 325 312 295 255 227 214 206 202 199 192 182 178 155 130 119 111 110 114 106 104 101 102 108 119 129 123 124 121 119 120 135 147 148 135
215 217 234 240 247 233 218 250 206 197 192 171 23 7 357 354 343 335 309 235 213 206 193 188 178 170 159 145 144 147 147 143 149 147 138 129 121 108 101 106 107 107 107 111 114 97 122 161 158
221 206 222 236 246 258 226 247 230 183 200 162 47 23 13 8 10 21 25 38 82 130 148 151 144 137 135 137 143 142 140 134 132 133 130 118 105 96 93 93 98 99 98 97 95 99 94 122 93
215 201 215 235 240 237 231 233 227 171 166 77 48 32 24 24 34 45 52 60 70 81 98 111 116 114 118 125 130 134 134 134 139 136 128 114 104 98 100 102 103 104 106 106 105 108 97 67 51
210 215 214 210 213 229 197 222 183 89 74 56 52 48 42 40 47 53 58 63 70 78 86 95 100 100 103 108 112 119 126 133 135 129 124 117 111 108 107 109 108 107 105 105 105 99 89 94 84
205 220 235 235 219 201 175 220 115 102 99 91 82 73 63 55 54 55 58 62 68 72 77 85 91 91 93 95 97 102 109 112 114 116 118 114 112 111 111 107 106 105 109 109 108 117 116 103 278
213 223 241 263 270 259 193 140 125 134 120 104 94 84 72 63 59 58 58 59 63 67 72 81 88 89 90 94 96 97 100 105 110 112 110 107 109 112 109 108 107 102 99 102 121 104 107 157 294
237 227 222 235 241 238 224 205 187 167 147 128 109 93 81 70 62 58 58 60 63 68 73 78 83 87 91 93 95 99 102 105 108 108 104 105 106 107 110 107 105 106 111 122 145 134 69 334 339
205 217 228 236 248 251 245 206 88 148 145 134 113 97 89 79 71 66 65 66 70 74 77 80 84 87 89 92 96 100 102 103 103 102 103 104 105 108 109 111 115 116 111 94 60 29 5 333 334
219 223 221 235 235 246 265 118 94 125 131 127 116 103 93 87 81 77 77 78 78 79 81 84 88 91 94 97 99 100 102 103 102 103 104 106 105 105 106 107 103 98 88 65 26 2 348 334 330